Temp
18 18 19 19 19 19 19 19 18 18 18 18 18 17 17 17 17 18 18 18 17 17 17 17 17 17 17 17 17 17 17 17 17 17 17 17 17 17 17 17 17 17 16
18 18 19 19 19 18 18 18 18 18 18 18 18 18 17 17 17 17 17 17 17 17 17 17 17 17 17 17 17 17 17 17 17 17 17 17 17 17 17 17 17 17 17
19 18 19 18 18 18 18 18 18 18 18 18 18 18 18 18 17 17 17 17 17 17 17 17 17 17 17 17 17 17 16 16 16 16 16 16 17 17 17 17 17 17 17
19 18 18 18 18 18 18 18 17 17 17 17 17 17 18 18 18 18 17 17 17 17 17 17 17 17 17 17 17 17 16 16 16 16 16 16 16 17 17 17 17 17 17
18 18 18 18 18 18 18 18 17 17 17 17 17 17 17 17 17 17 17 17 17 17 17 17 17 17 17 17 17 17 17 16 16 16 16 17 16 17 17 18 18 17 17
18 18 18 18 18 18 18 17 17 17 17 17 17 17 17 17 17 17 17 17 17 18 18 18 17 17 17 17 17 17 17 16 16 16 16 17 17 16 18 18 18 18 17
18 18 18 18 18 18 18 17 17 17 17 17 17 17 17 17 17 17 17 17 17 17 18 18 18 18 18 18 18 18 18 17 16 16 16 17 16 16 17 18 18 18 18
17 17 17 17 17 18 18 18 18 18 17 17 17 17 17 17 17 17 17 17 17 17 17 18 18 18 18 18 18 18 18 17 17 17 16 16 17 17 17 18 18 18 18
17 16 15 16 17 17 17 17 18 18 18 17 17 17 17 17 16 17 17 17 17 17 17 17 18 18 18 18 18 18 18 18 18 17 17 17 17 17 17 17 18 18 18
16 16 16 16 16 16 16 17 17 17 17 17 17 17 17 16 16 16 16 16 16 17 17 17 17 17 17 18 18 18 18 18 18 18 18 17 17 17 16 17 17 18 18
15 15 15 16 16 16 16 16 15 15 15 15 16 15 15 15 15 16 16 16 16 16 16 16 16 17 17 17 17 17 17 18 17 17 18 18 17 17 17 17 17 17 17
15 14 14 15 15 15 15 16 15 15 15 15 15 15 15 15 15 15 15 16 16 15 16 16 16 16 16 16 16 16 17 17 17 16 17 17 17 17 17 17 17 17 17
14 15 15 15 15 14 15 15 15 15 16 16 16 16 15 15 15 16 16 16 15 15 15 15 15 15 16 16 16 16 16 16 16 16 16 16 16 16 17 16 16 16 16
14 14 14 14 15 15 15 14 14 14 15 15 15 15 15 15 15 15 16 15 15 15 16 16 15 15 15 15 15 16 16 16 16 16 16 16 16 16 16 16 16 16 16
14 14 14 14 14 14 15 14 14 14 14 14 15 15 15 15 15 15 15 15 15 15 15 15 15 15 15 15 15 15 15 16 16 15 15 16 16 16 16 16 16 16 16
13 14 13 14 14 14 15 14 14 14 13 12 13 13 13 14 14 14 15 15 15 15 15 15 15 15 15 14 15 15 15 15 15 15 15 15 15 16 16 16 16 16 16
12 13 13 14 13 13 13 14 14 14 13 13 13 12 12 12 13 14 14 14 14 14 14 14 14 14 15 15 15 15 15 15 15 15 15 15 15 15 15 14 15 15 15
11 12 12 12 12 12 12 12 12 12 12 12 12 12 12 12 12 12 13 13 13 13 13 14 14 15 14 15 15 15 15 15 15 14 14 14 14 14 14 14 13 14 14
11 11 11 11 12 10 10 11 11 11 11 11 11 11 11 11 11 12 12 12 12 12 12 13 13 13 13 14 14 14 14 14 14 14 13 13 13 13 13 12 12 12 13
10 11 11 10 10 10 10 9 10 10 10 10 10 10 10 11 11 11 11 11 11 11 11 11 11 11 11 12 13 13 13 13 13 12 12 12 12 12 12 12 12 11 11
9 10 10 10 9 9 9 9 9 10 10 9 9 9 9 10 10 10 10 10 10 11 11 11 11 11 12 12 13 13 13 12 11 11 11 11 11 10 10 10 10 8 9
9 9 10 10 9 9 9 9 8 8 7 7 7 8 9 9 9 9 9 9 10 10 10 10 10 10 10 10 10 10 10 11 12 10 10 10 10 9 9 9 8 8 7
8 9 10 9 9 8 8 8 8 8 7 7 7 8 8 8 9 9 8 9 9 9 9 9 9 9 8 7 6 5 5 4 4 7 8 8 8 8 7 7 6 6 5
8 8 8 8 8 7 7 8 7 7 7 6 7 7 7 7 8 8 8 8 9 8 9 8 7 8 8 7 7 5 4 3 2 2 5 5 6 6 5 5 5 5 5
7 7 7 8 7 7 7 7 7 7 6 6 6 7 7 7 8 8 8 8 8 8 8 8 8 7 7 6 6 5 5 4 3 1 2 4 5 4 4 4 4 4 4
7 7 7 7 6 6 6 6 6 6 6 7 6 7 7 7 8 8 8 8 8 8 7 7 6 6 6 6 5 4 3 2 1 -0 -1 0 2 3 1 3 3 3 3
Height
1541 1543 1544 1545 1545 1546 1546 1546 1547 1547 1546 1546 1547 1548 1548 1548 1549 1550 1550 1551 1551 1550 1549 1549 1549 1549 1550 1550 1550 1551 1551 1551 1552 1552 1552 1552 1552 1552 1552 1552 1552 1552 1552
1541 1543 1544 1545 1546 1547 1547 1547 1548 1549 1548 1548 1548 1549 1550 1550 1550 1551 1551 1551 1552 1552 1552 1551 1551 1551 1552 1552 1552 1552 1553 1553 1554 1554 1555 1554 1554 1554 1554 1553 1553 1553 1553
1542 1543 1545 1546 1547 1548 1548 1548 1549 1549 1549 1550 1550 1551 1551 1551 1552 1552 1553 1552 1552 1553 1553 1553 1553 1553 1554 1554 1554 1554 1555 1555 1556 1556 1556 1556 1556 1556 1555 1555 1555 1555 1554
1542 1544 1545 1547 1548 1550 1550 1550 1549 1550 1550 1551 1551 1551 1552 1553 1553 1554 1554 1554 1554 1554 1554 1554 1555 1556 1556 1556 1556 1556 1557 1557 1557 1557 1557 1557 1557 1556 1557 1556 1556 1555 1555
1544 1545 1546 1548 1549 1551 1551 1551 1551 1551 1551 1551 1552 1552 1553 1554 1554 1555 1556 1556 1556 1556 1556 1556 1556 1556 1556 1557 1557 1558 1558 1558 1558 1558 1558 1558 1557 1557 1557 1557 1556 1556 1556
1545 1547 1547 1548 1550 1551 1552 1552 1552 1552 1552 1553 1553 1554 1554 1555 1555 1555 1555 1556 1557 1557 1557 1557 1557 1557 1557 1558 1558 1558 1558 1558 1558 1558 1558 1558 1558 1557 1557 1558 1557 1556 1556
1545 1547 1548 1549 1551 1552 1552 1553 1553 1553 1552 1553 1553 1554 1555 1556 1556 1556 1557 1556 1556 1556 1557 1558 1558 1558 1558 1558 1559 1559 1559 1559 1559 1559 1558 1558 1559 1558 1557 1559 1557 1557 1556
1546 1547 1549 1550 1552 1554 1554 1555 1554 1554 1553 1554 1554 1555 1555 1556 1557 1557 1557 1557 1557 1557 1557 1557 1557 1558 1558 1559 1559 1559 1559 1559 1559 1559 1559 1558 1557 1557 1557 1558 1558 1557 1556
1546 1547 1551 1551 1552 1554 1555 1555 1555 1555 1555 1555 1556 1556 1557 1557 1557 1557 1557 1558 1558 1557 1557 1558 1557 1557 1557 1557 1558 1558 1558 1558 1558 1558 1558 1558 1557 1556 1556 1557 1556 1556 1555
1547 1550 1552 1552 1553 1554 1555 1556 1556 1556 1556 1556 1557 1557 1558 1558 1559 1559 1559 1559 1558 1558 1557 1557 1557 1557 1557 1557 1556 1556 1556 1556 1556 1556 1556 1556 1555 1555 1554 1555 1554 1554 1553
1550 1552 1553 1554 1554 1554 1555 1556 1556 1556 1556 1556 1556 1557 1558 1559 1559 1559 1559 1559 1559 1558 1558 1557 1557 1556 1556 1555 1555 1555 1554 1555 1554 1554 1553 1553 1553 1552 1552 1552 1552 1552 1551
1552 1553 1553 1554 1554 1555 1554 1556 1556 1556 1555 1556 1557 1557 1557 1557 1557 1558 1558 1558 1558 1557 1557 1557 1556 1555 1555 1555 1554 1553 1552 1552 1552 1552 1551 1550 1550 1550 1549 1549 1549 1549 1549
1551 1552 1553 1553 1553 1554 1555 1555 1556 1555 1554 1554 1555 1556 1556 1557 1556 1557 1556 1556 1556 1555 1554 1553 1554 1554 1553 1553 1553 1552 1551 1551 1550 1550 1550 1549 1548 1547 1546 1546 1546 1546 1545
1552 1551 1552 1552 1553 1554 1555 1555 1555 1555 1554 1552 1553 1553 1554 1555 1555 1555 1555 1554 1554 1554 1552 1552 1551 1551 1550 1550 1550 1549 1549 1549 1548 1548 1547 1547 1546 1545 1544 1544 1542 1542 1541
1552 1552 1551 1553 1553 1553 1553 1553 1554 1554 1552 1551 1551 1551 1551 1552 1552 1552 1552 1551 1551 1550 1550 1550 1549 1548 1548 1546 1546 1546 1546 1546 1546 1545 1544 1544 1543 1542 1541 1540 1538 1537 1536
1552 1552 1552 1553 1553 1553 1552 1552 1552 1551 1550 1549 1548 1548 1549 1549 1549 1549 1549 1548 1548 1547 1546 1546 1545 1545 1544 1543 1543 1542 1542 1542 1542 1541 1540 1539 1539 1538 1536 1535 1533 1532 1531
1554 1553 1552 1551 1552 1551 1551 1551 1550 1549 1549 1548 1547 1547 1547 1547 1547 1547 1546 1545 1545 1544 1543 1542 1542 1540 1539 1539 1538 1539 1539 1539 1538 1537 1536 1533 1531 1530 1530 1529 1529 1527 1524
1556 1555 1551 1549 1551 1550 1550 1551 1550 1550 1548 1548 1547 1546 1546 1546 1545 1545 1544 1543 1542 1541 1540 1538 1537 1535 1534 1533 1533 1533 1534 1534 1535 1532 1530 1528 1526 1524 1522 1520 1519 1517 1515
1555 1553 1552 1551 1550 1549 1548 1550 1550 1551 1549 1547 1547 1546 1545 1545 1544 1544 1542 1541 1540 1539 1538 1536 1534 1532 1530 1529 1528 1528 1529 1529 1527 1526 1524 1523 1521 1519 1517 1516 1514 1512 1509
1554 1553 1554 1553 1550 1549 1548 1548 1549 1550 1550 1549 1548 1547 1546 1545 1544 1543 1542 1540 1538 1538 1537 1534 1532 1530 1527 1526 1524 1524 1525 1525 1523 1521 1520 1519 1518 1515 1513 1512 1509 1506 1505
1553 1553 1554 1553 1553 1550 1550 1548 1548 1550 1551 1551 1551 1549 1547 1545 1545 1543 1543 1540 1537 1537 1536 1534 1532 1529 1526 1523 1521 1520 1521 1520 1520 1518 1516 1516 1514 1512 1509 1508 1504 1502 1501
1552 1553 1552 1551 1552 1549 1551 1548 1550 1550 1551 1550 1553 1551 1548 1546 1546 1544 1545 1541 1538 1538 1536 1534 1531 1530 1526 1522 1519 1517 1516 1517 1518 1516 1515 1514 1512 1510 1507 1504 1502 1500 1497
1551 1552 1550 1551 1550 1552 1551 1551 1551 1551 1554 1551 1552 1552 1550 1549 1547 1546 1546 1542 1540 1538 1536 1534 1532 1530 1528 1525 1522 1522 1520 1519 1514 1514 1513 1511 1510 1508 1506 1502 1499 1496 1493
1551 1551 1553 1552 1549 1552 1552 1552 1552 1552 1554 1553 1553 1552 1552 1552 1550 1547 1547 1543 1542 1540 1538 1536 1535 1532 1530 1526 1526 1526 1526 1524 1520 1510 1509 1508 1507 1505 1502 1500 1497 1494 1490
1552 1551 1552 1549 1552 1552 1551 1552 1554 1554 1554 1553 1555 1554 1554 1552 1552 1551 1548 1545 1544 1543 1540 1539 1537 1534 1532 1530 1528 1526 1525 1523 1522 1518 1507 1502 1503 1502 1499 1497 1494 1489 1486
1550 1551 1552 1551 1552 1552 1552 1554 1555 1555 1555 1555 1557 1556 1556 1555 1553 1553 1550 1548 1547 1545 1542 1540 1539 1537 1534 1533 1531 1528 1524 1522 1520 1518 1513 1507 1502 1497 1496 1494 1489 1486 1482
Wind_Speed
15 14 13 13 14 14 14 14 15 16 18 18 18 18 19 18 17 16 16 15 14 13 12 12 13 13 12 12 12 12 13 13 12 11 10 9 9 9 10 10 9 9 8
18 15 14 14 15 14 14 14 14 15 16 17 16 15 15 14 14 14 15 15 15 13 12 11 11 12 13 13 12 12 12 13 13 14 12 10 9 8 8 7 7 6 6
17 16 16 15 15 15 14 15 14 14 15 15 15 15 13 12 11 11 12 13 14 13 12 10 10 11 12 12 12 13 13 13 14 12 12 12 10 7 6 6 5 4 4
16 17 17 15 14 13 13 14 14 14 14 14 14 14 13 12 11 9 9 10 11 11 10 10 9 9 10 11 11 12 13 12 10 8 7 9 9 9 8 5 4 2 2
16 17 16 15 13 11 10 11 13 13 13 13 13 13 13 12 11 10 9 9 9 9 9 8 8 7 8 9 9 9 9 8 7 5 4 4 4 6 8 8 5 3 2
15 15 15 13 12 11 11 11 11 10 10 11 12 12 11 10 9 9 9 8 8 9 8 6 6 6 6 6 6 7 8 7 4 1 1 3 3 2 6 12 9 6 5
17 16 15 13 11 11 11 11 11 10 10 10 11 11 10 9 8 8 8 7 8 8 7 6 5 4 3 4 4 5 7 6 3 1 4 4 7 6 4 11 12 10 8
21 19 17 16 13 11 10 9 8 8 9 10 10 10 10 10 9 9 8 8 7 6 5 4 3 2 2 1 1 2 4 9 5 5 3 8 10 8 8 10 15 15 12
21 21 20 18 16 13 10 9 9 9 9 8 8 8 8 8 8 8 8 8 8 7 6 5 4 2 2 2 2 2 2 4 10 10 8 7 5 6 12 12 14 17 15
18 16 16 16 16 16 13 10 9 9 9 8 7 6 6 5 5 7 8 10 10 9 7 5 5 5 5 5 5 6 6 5 4 10 12 10 8 9 13 17 14 17 17
14 13 12 12 12 13 13 13 13 12 12 9 8 9 11 7 5 4 8 9 10 10 10 10 11 8 7 7 7 8 9 8 7 5 12 14 13 12 13 17 18 18 20
13 13 12 10 9 8 11 10 10 9 8 7 6 7 5 2 0 1 3 5 7 9 8 7 8 9 9 10 10 9 10 11 12 11 7 11 14 15 14 16 20 21 22
11 11 11 11 12 9 8 7 7 6 6 5 4 2 3 5 4 4 4 4 6 7 7 8 10 8 9 11 16 16 14 10 13 14 13 13 15 16 17 17 21 23 23
9 11 10 10 11 12 9 10 8 7 6 6 8 8 8 9 10 11 9 9 8 10 8 10 10 10 14 14 15 15 16 18 18 19 19 18 22 23 24 24 25 25 26
8 11 11 9 9 8 9 10 9 9 9 11 11 11 11 12 12 12 13 13 13 14 15 15 15 14 14 12 14 18 17 19 19 24 26 24 24 23 27 30 33 36 35
8 9 10 8 8 7 6 5 6 8 10 12 11 9 8 11 12 15 15 16 17 19 19 22 22 21 20 18 16 15 15 20 21 24 23 26 28 27 27 28 29 31 32
4 7 9 7 7 4 2 2 2 2 3 4 5 6 5 7 6 9 12 15 16 18 20 19 19 22 26 27 25 24 23 24 26 28 26 25 27 29 31 35 38 38 38
3 7 10 8 9 5 2 2 3 3 3 5 5 5 5 6 8 9 10 9 9 11 12 14 16 18 18 21 23 25 26 27 26 26 27 29 29 27 25 29 30 33 35
5 8 11 11 10 9 5 4 5 6 8 9 8 8 7 6 4 4 6 7 8 9 10 11 12 14 16 17 18 18 19 19 19 20 20 18 21 21 21 17 17 20 25
5 9 11 14 13 12 8 4 3 7 10 9 9 9 10 10 9 8 8 8 8 9 9 11 11 12 14 15 13 12 10 7 8 8 10 11 14 17 19 20 21 22 19
9 9 10 14 16 15 12 5 1 3 6 9 11 11 11 10 10 10 10 11 13 13 15 15 15 17 17 19 18 14 8 6 1 13 11 15 19 20 22 23 23 21 17
8 9 9 11 14 12 9 5 3 5 7 10 11 12 13 12 12 13 12 14 14 14 15 17 18 19 22 24 24 16 13 10 17 8 19 20 23 25 26 27 24 21 18
5 7 7 9 11 11 9 7 5 5 6 7 11 13 15 14 15 15 16 17 17 17 20 20 21 22 22 22 25 20 10 9 26 9 19 27 29 26 28 24 23 25 24
5 4 6 9 11 11 10 7 5 9 9 9 10 12 14 14 15 17 17 18 19 20 21 23 22 23 23 24 22 19 13 11 13 16 28 29 32 32 30 26 23 27 26
7 5 5 8 12 12 10 8 9 12 11 10 9 12 13 14 14 15 17 18 18 19 20 20 20 21 21 21 22 20 20 17 17 19 28 42 36 33 25 27 31 28 28
9 5 4 10 13 12 11 12 10 10 10 10 10 11 12 14 14 15 16 16 17 17 19 19 20 19 19 18 17 18 20 20 21 19 26 32 35 37 30 32 31 28 31
Wind_Direction
132 130 135 134 135 126 115 106 102 93 89 87 91 103 106 103 98 91 82 73 77 79 86 88 94 103 101 97 92 89 91 89 87 86 86 85 82 79 90 84 88 93 96
131 134 136 136 134 127 114 105 102 94 89 88 88 96 101 101 95 87 81 78 72 69 71 93 98 102 101 100 100 104 104 104 103 94 80 72 53 56 78 74 81 81 86
134 131 133 134 132 126 117 112 111 103 97 91 90 93 94 93 90 82 74 73 72 70 70 86 100 107 108 105 106 112 113 114 112 99 85 77 50 38 37 49 68 81 87
131 128 127 129 130 127 122 117 115 107 101 95 94 94 94 85 81 76 72 68 65 70 72 84 98 104 107 110 115 120 118 113 105 93 91 70 57 36 11 12 21 44 68
128 128 128 128 130 128 122 118 117 111 105 98 96 94 93 91 86 77 67 62 60 62 74 85 93 98 104 111 124 135 132 122 100 63 53 49 51 20 355 351 347 339 322
129 128 127 132 136 134 127 121 116 108 100 97 98 97 94 88 79 76 83 77 62 56 57 73 91 97 93 97 113 143 152 148 135 125 247 360 354 336 10 354 337 319 297
122 118 118 124 132 135 132 127 124 117 108 101 96 90 82 73 67 67 65 72 83 84 72 59 55 69 84 102 117 146 173 178 183 177 249 289 295 299 306 336 341 321 303
118 109 108 108 109 114 116 116 113 109 108 107 104 98 91 82 77 70 61 52 46 46 59 77 78 55 27 24 51 162 191 205 232 211 280 305 298 263 277 316 328 330 309
124 121 115 108 108 106 105 108 105 99 97 98 97 91 85 84 76 76 69 57 45 37 25 11 1 346 316 303 295 282 255 234 221 243 273 295 306 271 262 280 310 326 316
127 131 131 128 120 109 106 102 90 90 90 91 90 84 85 99 72 59 58 31 17 22 7 3 352 332 318 306 296 287 278 267 252 239 252 275 286 302 278 271 287 310 317
135 136 133 131 136 131 116 116 98 93 84 87 97 90 83 78 42 49 19 41 30 21 28 16 7 333 311 306 292 285 279 276 264 258 252 265 273 290 287 270 278 293 303
146 156 159 152 146 141 146 139 130 131 132 121 112 118 113 126 156 347 17 339 328 345 320 327 350 356 351 333 323 303 287 274 262 262 257 259 260 276 283 277 277 285 294
126 142 159 171 176 176 166 160 175 181 161 171 202 194 223 243 272 260 272 279 269 288 308 286 287 293 309 318 329 327 310 303 285 282 275 268 267 274 288 279 280 285 285
121 121 127 158 184 192 186 192 187 193 197 202 207 223 240 238 248 248 259 261 262 271 276 277 275 281 276 279 295 303 310 314 317 309 301 293 281 281 284 285 280 283 282
125 112 117 133 147 162 190 198 208 217 223 226 230 237 243 237 235 236 249 256 261 268 270 273 276 281 283 287 278 286 286 298 308 311 304 300 296 294 287 286 285 284 286
121 120 125 141 127 136 155 173 207 234 242 251 256 263 265 260 259 261 265 267 271 273 277 279 279 281 281 281 282 284 275 280 283 286 292 287 293 299 299 298 297 297 295
124 138 150 154 128 138 128 144 192 216 259 289 299 275 275 282 291 283 282 279 275 275 279 286 284 287 279 279 279 278 278 280 284 287 293 296 287 284 295 294 293 294 294
134 149 140 148 140 138 107 92 73 56 22 10 344 324 309 296 277 287 290 298 312 301 302 297 293 291 291 286 283 287 288 291 294 294 293 292 295 300 300 301 290 287 285
126 137 141 147 143 142 119 83 69 41 31 39 44 43 39 32 9 329 327 333 337 333 327 320 317 310 310 307 306 306 310 306 294 294 298 304 300 304 301 307 315 303 295
134 144 141 146 133 133 123 102 42 17 40 50 57 58 54 54 51 44 41 36 29 22 20 12 0 353 350 344 338 324 313 342 342 325 327 338 340 338 331 327 323 310 309
122 145 144 152 142 146 144 153 309 30 52 54 54 58 58 55 52 51 43 42 38 32 31 26 17 10 4 3 357 5 15 359 43 337 331 330 336 344 347 341 342 345 0
128 128 142 142 165 171 186 166 106 68 71 64 60 61 62 58 57 53 48 47 42 38 35 32 27 23 20 15 17 13 358 359 339 342 340 343 349 347 349 347 349 346 337
146 130 128 133 148 156 159 164 143 126 107 87 76 69 63 63 65 62 57 54 50 45 43 39 34 29 29 31 31 36 9 338 342 331 345 344 348 352 349 347 346 348 340
160 126 135 147 144 156 166 178 179 146 122 86 76 75 67 61 60 60 56 52 47 42 41 37 33 29 24 26 27 33 35 9 353 326 330 341 349 349 354 353 351 344 341
162 134 125 135 150 158 156 157 143 130 122 110 84 81 75 69 63 60 58 53 48 43 42 37 33 29 26 22 19 13 11 12 359 350 335 339 341 350 351 351 347 343 343
168 149 117 142 138 142 148 137 143 128 113 108 99 91 79 71 65 59 57 53 49 45 43 39 33 29 28 23 19 16 13 8 356 353 339 338 337 343 340 346 343 347 342